World > North America > United States > Texas > Van   City of Van, TX

Van, TX Hourly Weather Updates

Feedback E-mail the Weather

Quick Clicks

Van, TX Weather Maps

°F °C°F °C
Van Weather Map
UTC Time: 5/22/2024, 23:38
Your Time:

Van, TX Regional Weather

Expires:202405230000;;687240
ASUS44 KFWD 222315
RWRTX 
NORTH TEXAS HOURLY WEATHER ROUNDUP
NATIONAL WEATHER SERVICE FORT WORTH TX
600 PM CDT WED MAY 22 2024

NOTE: "FAIR" INDICATES FEW OR NO CLOUDS BELOW 12,000 FEET WITH NO
SIGNIFICANT WEATHER AND/OR OBSTRUCTIONS TO VISIBILITY.


TXZ095>097-106>112-122>126-135>138-148>153-164>167-230000-
EAST TEXAS
  
CITY           SKY/WX    TMP DP  RH WIND       PRES   REMARKS
PARIS          PTSUNNY   73  73 100 E7        29.82S                  
SULPHUR SPRNGS FAIR      72  71  97 SE9       29.79F                  
MOUNT PLEASANT HVY RAIN  75  75 100 SE7       29.85R FOG              
GILMER         FAIR      79  74  85 CALM      29.80R                  
MINEOLA        RAIN      73  72  94 E6        29.81R                  
TYLER          FAIR      87  74  64 S6        29.79R HX  95           
LONGVIEW       TSTM      83  80  91 NE6       29.80R HX  95           
MARSHALL       TSTM      81  81  99 SW22      29.81R FOG     HX  92   
ATHENS         FAIR      84  73  70 CALM      29.77R HX  91           
PALESTINE      PTSUNNY   84  77  79 CALM      29.77R HX  94           
JACKSONVILLE   FAIR      85  75  72 S6        29.82R HX  92           
HENDERSON      FAIR      90  75  62 S5        29.81R HX 100           
CENTER         PTSUNNY   88  73  62 S9        29.81F HX  96           
NACOGDOCHES    FAIR      86  75  70 S12       29.81S HAZE    HX  95   
LUFKIN         FAIR      86  75  69 S9        29.80F HX  95           
$$

SUPPLEMENTAL OBSERVATIONS (NWS FORT WORTH AREA)
  
CITY           SKY/WX    TMP DP  RH WIND       PRES   REMARKS
CADDO GRASSLND   N/A     75  70  83 S2          N/A                   
LBJ GRASSLAND    N/A     73  68  83 NE5         N/A                   
GRANBURY         N/A     77  73  88 N7G15       N/A                   
MCGREGOR         N/A     82  73  74 N2G10       N/A                   
TEMPLE           N/A     86  72  62 SE8         N/A  HX  92           
$$

SUPPLEMENTAL OBSERVATIONS (NWS NORMAN AREA)
  
CITY           SKY/WX    TMP DP  RH WIND       PRES   REMARKS
GOODLETT         N/A     82  52  35 E12       29.82                   
ODELL            N/A     80  57  45 NE17      29.84F                  
CROWELL          N/A     82  58  44 E13       29.81F                  
KNOX CITY        N/A     79  62  56 NE13      29.79                   
SEYMOUR          N/A     79  63  57 NE14      29.79F                  
MILLERS CREEK    N/A     79  61  53 E14         N/A                   
$$

SUPPLEMENTAL OBSERVATIONS (NWS SAN ANGELO AREA)
  
CITY           SKY/WX    TMP DP  RH WIND       PRES   REMARKS
WEINERT          N/A     78  63  58 NE9       29.81R                  
HASKELL          N/A     78  63  61 NE13      29.80                   
THROCKMORTON     N/A     80  66  63 NE8       29.79                   
STAMFORD         N/A     78  66  66 E13       29.79                   
CLYDE            N/A     77  69  75 N12       29.85R                  
HAMBY            N/A     81  66  61 NE8G17      N/A                   
IVIE RESERVOIR   N/A     73  66  78 E7G16       N/A                   
COLORADO BEND    N/A     72  64  78 NE9G25      N/A                   
$$

SUPPLEMENTAL OBSERVATIONS (NWS SHREVEPORT AREA)
  
CITY           SKY/WX    TMP DP  RH WIND       PRES   REMARKS
TEXARKANA        N/A     73  72  94 NE3G14      N/A                   
LUFKIN           N/A     86  73  66 MISG        N/A  HX  93           
$$

SUPPLEMENTAL OBSERVATIONS ARE A COLLECTION OF AUTOMATED INSTRUMENTS
THAT ARE MAINTAINED BY A VARIETY OF FEDERAL AND STATE AGENCIES. 
CERTAIN ELEMENTS...SUCH AS HUMIDITY VALUES AND SUSTAINED WIND 
SPEEDS...MAY BE APPROXIMATED.

  

SKY/WX - Weather  TMP - Temperature  DP - Dew Point  RH - Humidity
WIND - Wind Direction/Speed PRES - Barometric Pressure VSB - Visibility
WCI - Wind Chill Index E13G22 Wind - East Wind 13 mph/Gusts of 22 mph

Trending Headlines

Trending Entertainment Headlines

Van Radar Loop

Use the map search tool if you want to place a location marker on the radar map...

Van Quick Facts

National Two Day Weather Forecast


E-mail the Van Weather Forecast

Voice your opinion or tell us about page issues...